Regional Weather Roundup
Issued by NWS

Home | Current Version | Previous Version | Text Only | Print | Product List | Glossary Off
Versions: 1 2 3 4 5 6 7 8 9 10 11 12 13 14 15 16 17 18 19 20 21 22 23 24 25 26 27 28 29 30 31 32 33 34 35 36 37 38 39 40 41 42 43 44 45 46 47 48 49 50

927
ASUS43 KIND 212309
RWRIN

WEATHER ROUNDUP FOR INDIANA
NATIONAL WEATHER SERVICE INDIANAPOLIS IN
700 PM EDT SAT APR 21 2018

NOTE: "FAIR" INDICATES FEW OR NO CLOUDS BELOW 12,000 FEET WITH NO
SIGNIFICANT WEATHER AND/OR OBSTRUCTIONS TO VISIBILITY.

* - STATION DOES NOT REPORT WEATHER SUCH AS PRECIPITATION OR FOG.

+ - STATION NOT QUALITY CONTROLLED BY THE NATIONAL WEATHER SERVICE.
    USE DATA WITH CAUTION...ESPECIALLY DEWPOINT AND RELATIVE
    HUMIDITY OBSERVATIONS.

INZ001>003-010>013-019-020-220000-
NORTHWEST INDIANA

CITY           SKY/WX    TMP DP  RH WIND       PRES   REMARKS
GARY /AIRPORT/ CLOUDY    45  28  53 NE5       30.38F
KNOX *+        FAIR      54  28  37 E7        30.36F
LA PORTE +     FAIR      52  31  43 N3        30.37F
MICHIGAN CITY+ FAIR      48  25  40 CALM      30.37F
MONTICELLO +   PTSUNNY   56  22  27 NE10      30.33F
RENSSELAER +   PTSUNNY   54  12  19 NE10      30.34F
VALPARAISO     FAIR      54  30  40 NE6       30.36F

$$

LMZ046-743>745-220000-
SOUTHERN LAKE MICHIGAN

STATION/POSITION TIME  TEMP    WIND        PRES    WAVE
                       AIR SEA DIR/SP/G            HT
                 (UTC) (F)     (DEG/KT/KT) (MB)    (FT)
BURNS HARBOR     2240   43      70/  7/  8 1028.8F
MICHIGAN CITY    2240   42      50/  5/  5   N/A

$$

INZ004-005-014>016-021>024-220000-
NORTH CENTRAL INDIANA

CITY           SKY/WX    TMP DP  RH WIND       PRES   REMARKS
GOSHEN         CLOUDY    55  33  43 CALM      30.37F
LOGANSPORT +   CLOUDY    54  25  32 E9        30.36S
PERU/GRISSOM   CLOUDY    55  21  26 E10       30.34F
ROCHESTER +    FAIR      55  23  28 E8        30.37F
SOUTH BEND     CLOUDY    55  25  31 CALM      30.37F
WARSAW +       CLOUDY    54  28  37 E5        30.37S

$$

INZ006>009-017-018-025>027-220000-
NORTHEAST INDIANA

CITY           SKY/WX    TMP DP  RH WIND       PRES   REMARKS
ANGOLA *+      FAIR      54  23  30 SE3       30.37F
AUBURN +       CLOUDY    52  28  40 E5        30.38F
FORT WAYNE     CLOUDY    54  26  34 NE10      30.38F
HUNTINGTON +   FAIR      53  22  30 E6        30.37S

$$

INZ028-029-035-036-043>045-051>053-220000-
WEST CENTRAL INDIANA

CITY           SKY/WX    TMP DP  RH WIND       PRES   REMARKS
CRAWFORDSVL +  FAIR      57  26  30 E10       30.30S
GREENCASTLE +  FAIR      55  23  28 E8        30.30S
LAFAYETTE      FAIR      56  24  29 NE20      30.32S
TERRE HAUTE    FAIR      59  31  34 NE12      30.27F

$$

INZ030>032-037>040-046>048-054>057-064-065-220000-
CENTRAL INDIANA

CITY           SKY/WX    TMP DP  RH WIND       PRES   REMARKS
COLUMBUS       CLOUDY    59 N/A N/A E13       30.30F
FISHERS *+     FAIR      57  28  33 E9G16     30.32
FRANKFORT +    FAIR      59  22  23 E13       30.35S
GREENWOOD *+   FAIR      57  24  27 E8        30.31F
INDIANAPOLIS   PTSUNNY   59  21  23 E10       30.31S
-EAGLE CREEK   FAIR      59  23  25 E9        30.30F
KOKOMO +       CLOUDY    53  29  39 NE12      30.36S
MARION +       PTSUNNY   54  25  33 NE3G10    30.36S
MT COMFORT *+  FAIR      55  32  41 E12       30.32S
SHELBYVILLE    FAIR      60  22  23 E10       30.30F
ZIONSVILLE +   FAIR      56  23  28 NE10      30.32F

$$

INZ033-034-041-042-049-050-058-059-220000-
EAST CENTRAL INDIANA

CITY           SKY/WX    TMP DP  RH WIND       PRES   REMARKS
MUNCIE         PTSUNNY   57  21  24 NE10      30.35R
RICHMOND +     FAIR      52  27  37 E9        30.33F

$$

INZ060-061-067>069-081>083-085>088-220000-
SOUTHWEST INDIANA

CITY           SKY/WX    TMP DP  RH WIND       PRES   REMARKS
EVANSVILLE     FAIR      68  31  25 E10       30.19F
HUNTINGBURG +  FAIR      67  33  28 E12       30.20F
WASHINGTON +   FAIR      64  26  23 E13       30.22S

$$

INZ062-063-066-070>080-084-089>092-220000-
SOUTH CENTRAL AND SOUTHEAST INDIANA

CITY           SKY/WX    TMP DP  RH WIND       PRES   REMARKS
BATESVILLE +   SUNNY     57  27  30 MISG      30.31S
BEDFORD +      FAIR      63  25  23 NE15      30.24F
BLOOMINGTON    FAIR      59  26  28 NE12      30.26F
FRENCH LICK *+ FAIR      63  19  19 NE12G20   30.22F
MADISON *+     FAIR      61  27  27 NE10      30.29F
NORTH VERNON + FAIR      57  27  30 NE12      30.30F

$$





USA.gov is the U.S. government's official web portal to all federal, state and local government web resources and services.